New Ulm, MN

4:24 AM CDT on September 22, 2019 (GMT -0500)
New Ulm Municipal

Weather History for KULM - May, 2019

Change the Weather History Date:

Thursday, May 23, 2019

  Actual Average Record
Temperature  
Mean Temperature 55 °F -  
Max Temperature 60 °F 73 °F 93 °F (1964)
Min Temperature 50 °F 50 °F 26 °F (1963)
Degree Days  
Heating Degree Days 10    
Growing Degree Days 5 (Base 50)    
Moisture  
Dew Point 46 °F    
Average Humidity 76    
Maximum Humidity 88    
Minimum Humidity 59    
Precipitation  
Precipitation 0.00 in - - ()
Sea Level Pressure  
Sea Level Pressure 30.01 in    
Wind  
Wind Speed 11 mph ()    
Max Wind Speed 21 mph    
Max Gust Speed 28 mph    
Visibility 10.0 miles    
Events      
Averages and records for this station are not official NWS values.
T = Trace of Precipitation, MM = Missing Value Source: Averaged Metar Reports

Daily Weather History Graph

Daily Weather History Graph

Search for Another Location

Airport or City:

Astronomy

May. 23, 2019 Rise Set
Actual Time 5:43 AM CDT 8:46 PM CDT
Civil Twilight 5:08 AM CDT 9:21 PM CDT
Nautical Twilight 4:24 AM CDT 10:06 PM CDT
Astronomical Twilight 3:31 AM CDT 10:59 PM CDT
Moon 12:31 AM CDT (5/23) 9:46 AM CDT (5/23)
Length of Visible Light 16h 12m
Length of Day
15h 03m
Waning Gibbous, 77% of the Moon is Illuminated
May 23
Waning Gibbous
May 26
Last Quarter
Jun 3
New
Jun 10
First Quarter
Jun 17
Full

Hourly Weather History & Observations

Time (CDT) Temp. Dew Point Humidity Pressure Visibility Wind Dir Wind Speed Gust Speed Precip Events Conditions
12:15 AM 53.6 °F 48.2 °F 82% 29.80 in 10.0 mi WSW 12.7 mph - N/A   Overcast
12:35 AM 53.6 °F 48.2 °F 82% 29.80 in 10.0 mi WSW 12.7 mph - N/A   Overcast
12:55 AM 53.6 °F 48.2 °F 82% 29.81 in 10.0 mi WSW 10.4 mph - N/A   Overcast
1:15 AM 53.6 °F 48.2 °F 82% 29.82 in 10.0 mi WSW 10.4 mph - N/A   Overcast
1:35 AM 53.6 °F 48.2 °F 82% 29.82 in 10.0 mi WSW 12.7 mph - N/A   Overcast
1:55 AM 53.6 °F 48.2 °F 82% 29.83 in 10.0 mi WSW 10.4 mph - N/A   Overcast
2:15 AM 53.6 °F 48.2 °F 82% 29.84 in 10.0 mi WSW 11.5 mph - N/A   Overcast
2:35 AM 51.8 °F 48.2 °F 88% 29.85 in 10.0 mi West 12.7 mph - N/A   Overcast
2:55 AM 51.8 °F 46.4 °F 82% 29.85 in 10.0 mi West 13.8 mph - N/A   Overcast
3:15 AM 51.8 °F 46.4 °F 82% 29.86 in 10.0 mi West 11.5 mph - N/A   Overcast
3:35 AM 50.0 °F 46.4 °F 87% 29.87 in 10.0 mi West 11.5 mph - N/A   Scattered Clouds
3:36 AM 50.0 °F 46.4 °F 87% 29.87 in 10.0 mi West 11.5 mph - N/A   Scattered Clouds
3:55 AM 50.0 °F 46.4 °F 87% 29.87 in 10.0 mi West 10.4 mph - N/A   Clear
4:15 AM 50.0 °F 46.4 °F 87% 29.88 in 10.0 mi West 11.5 mph - N/A   Scattered Clouds
4:35 AM 50.0 °F 46.4 °F 87% 29.89 in 10.0 mi West 10.4 mph - N/A   Mostly Cloudy
4:36 AM 50.0 °F 46.4 °F 87% 29.90 in 10.0 mi West 10.4 mph - N/A   Mostly Cloudy
4:55 AM 50.0 °F 46.4 °F 87% 29.90 in 10.0 mi West 12.7 mph - N/A   Overcast
5:15 AM 50.0 °F 46.4 °F 87% 29.91 in 10.0 mi West 11.5 mph - N/A   Overcast
5:35 AM 50.0 °F 46.4 °F 87% 29.91 in 10.0 mi West 13.8 mph - N/A   Overcast
5:36 AM 50.0 °F 46.4 °F 87% 29.91 in 10.0 mi West 15.0 mph - N/A   Overcast
5:55 AM 51.8 °F 46.4 °F 82% 29.92 in 10.0 mi West 12.7 mph - N/A   Overcast
6:15 AM 51.8 °F 46.4 °F 82% 29.94 in 10.0 mi West 13.8 mph - N/A   Mostly Cloudy
6:35 AM 51.8 °F 46.4 °F 82% 29.95 in 10.0 mi West 15.0 mph 18.4 mph N/A   Overcast
6:55 AM 51.8 °F 46.4 °F 82% 29.97 in 10.0 mi WNW 13.8 mph - N/A   Overcast
7:15 AM 51.8 °F 44.6 °F 76% 29.98 in 10.0 mi WNW 15.0 mph - N/A   Overcast
7:35 AM 51.8 °F 44.6 °F 76% 29.98 in 10.0 mi WNW 13.8 mph - N/A   Overcast
7:55 AM 51.8 °F 44.6 °F 76% 29.99 in 10.0 mi WNW 15.0 mph - N/A   Overcast
8:15 AM 51.8 °F 44.6 °F 76% 29.99 in 10.0 mi WNW 13.8 mph - N/A   Overcast
8:35 AM 51.8 °F 44.6 °F 76% 30.00 in 10.0 mi WNW 17.3 mph - N/A   Overcast
8:55 AM 51.8 °F 44.6 °F 76% 30.01 in 10.0 mi WNW 16.1 mph - N/A   Overcast
9:15 AM 51.8 °F 44.6 °F 76% 30.02 in 10.0 mi WNW 16.1 mph - N/A   Overcast
9:35 AM 53.6 °F 44.6 °F 72% 30.02 in 10.0 mi WNW 17.3 mph 20.7 mph N/A   Overcast
9:55 AM 53.6 °F 44.6 °F 72% 30.03 in 10.0 mi WNW 16.1 mph - N/A   Overcast
10:15 AM 53.6 °F 44.6 °F 72% 30.04 in 10.0 mi WNW 13.8 mph 18.4 mph N/A   Overcast
10:35 AM 53.6 °F 44.6 °F 72% 30.05 in 10.0 mi West 15.0 mph - N/A   Overcast
10:55 AM 53.6 °F 44.6 °F 72% 30.06 in 10.0 mi WNW 18.4 mph 24.2 mph N/A   Overcast
11:15 AM 55.4 °F 44.6 °F 67% 30.06 in 10.0 mi WNW 19.6 mph 23.0 mph N/A   Mostly Cloudy
11:35 AM 55.4 °F 44.6 °F 67% 30.06 in 10.0 mi WNW 20.7 mph 25.3 mph N/A   Mostly Cloudy
11:55 AM 55.4 °F 44.6 °F 67% 30.05 in 10.0 mi NW 18.4 mph 27.6 mph N/A   Scattered Clouds
12:15 PM 57.2 °F 44.6 °F 63% 30.06 in 10.0 mi WNW 15.0 mph 19.6 mph N/A   Scattered Clouds
12:35 PM 57.2 °F 44.6 °F 63% 30.06 in 10.0 mi NW 12.7 mph 17.3 mph N/A   Overcast
12:55 PM 57.2 °F 44.6 °F 63% 30.07 in 10.0 mi NW 11.5 mph 16.1 mph N/A   Overcast
1:15 PM 57.2 °F 44.6 °F 63% 30.08 in 10.0 mi NW 12.7 mph - N/A   Overcast
1:59 PM 55.4 °F 44.6 °F 67% 30.10 in 10.0 mi WNW 9.2 mph - N/A   Overcast
2:15 PM 55.4 °F 44.6 °F 67% 30.10 in 10.0 mi WNW 6.9 mph - N/A   Overcast
2:35 PM 55.4 °F 46.4 °F 72% 30.11 in 10.0 mi WNW 6.9 mph - N/A   Overcast
2:55 PM 55.4 °F 46.4 °F 72% 30.12 in 10.0 mi WNW 6.9 mph - N/A   Overcast
3:15 PM 57.2 °F 46.4 °F 67% 30.12 in 10.0 mi WNW 6.9 mph - N/A   Overcast
3:35 PM 57.2 °F 46.4 °F 67% 30.11 in 10.0 mi NW 6.9 mph - N/A   Overcast
3:55 PM 59.0 °F 46.4 °F 63% 30.11 in 10.0 mi North 4.6 mph - N/A   Overcast
4:15 PM 59.0 °F 46.4 °F 63% 30.11 in 10.0 mi NNW 9.2 mph - N/A   Mostly Cloudy
4:35 PM 60.8 °F 46.4 °F 59% 30.10 in 10.0 mi NW 8.1 mph - N/A   Scattered Clouds
4:55 PM 57.2 °F 46.4 °F 67% 30.11 in 10.0 mi NNW 5.8 mph - N/A   Scattered Clouds
5:15 PM 57.2 °F 46.4 °F 67% 30.13 in 10.0 mi WNW 5.8 mph - N/A   Mostly Cloudy
5:35 PM 57.2 °F 46.4 °F 67% 30.14 in 10.0 mi WNW 8.1 mph - N/A   Overcast
5:55 PM 57.2 °F 44.6 °F 63% 30.14 in 10.0 mi WNW 9.2 mph - N/A   Overcast
6:15 PM 57.2 °F 44.6 °F 63% 30.13 in 10.0 mi WNW 6.9 mph - N/A   Overcast
6:35 PM 57.2 °F 46.4 °F 67% 30.13 in 10.0 mi NNW 6.9 mph - N/A   Overcast
6:55 PM 57.2 °F 46.4 °F 67% 30.11 in 10.0 mi Calm Calm - N/A   Overcast
7:15 PM 55.4 °F 46.4 °F 72% 30.11 in 10.0 mi North 4.6 mph - N/A   Overcast
7:35 PM 55.4 °F 46.4 °F 72% 30.10 in 10.0 mi NNE 5.8 mph - N/A   Mostly Cloudy
7:55 PM 55.4 °F 46.4 °F 72% 30.08 in 10.0 mi NE 6.9 mph - N/A   Scattered Clouds
8:15 PM 55.4 °F 46.4 °F 72% - 10.0 mi NNE 6.9 mph - N/A   Clear
8:35 PM 53.6 °F 46.4 °F 77% 30.06 in 10.0 mi NE 8.1 mph - N/A   Clear
8:55 PM 53.6 °F 46.4 °F 77% 30.08 in 10.0 mi ENE 4.6 mph - N/A   Clear
9:15 PM 53.6 °F 46.4 °F 77% 30.09 in 10.0 mi NE 4.6 mph - N/A   Clear
9:35 PM 53.6 °F 46.4 °F 77% 30.09 in 10.0 mi ENE 4.6 mph - N/A   Clear
9:55 PM 53.6 °F 46.4 °F 77% 30.10 in 10.0 mi NE 3.5 mph - N/A   Clear
10:15 PM 53.6 °F 46.4 °F 77% 30.11 in 10.0 mi East 3.5 mph - N/A   Scattered Clouds
10:35 PM 51.8 °F 46.4 °F 82% 30.09 in 10.0 mi East 5.8 mph - N/A   Scattered Clouds
10:55 PM 51.8 °F 46.4 °F 82% 30.10 in 10.0 mi Calm Calm - N/A   Clear
11:15 PM 51.8 °F 46.4 °F 82% 30.08 in 10.0 mi East 4.6 mph - N/A   Clear
11:35 PM 51.8 °F 46.4 °F 82% 30.07 in 10.0 mi East 6.9 mph - N/A   Clear
11:55 PM 51.8 °F 46.4 °F 82% 30.06 in 10.0 mi East 6.9 mph - N/A   Clear